"Pseudo-MPEC" for P11TCpU

Created 2024 Apr 29 16:22:12 UT using Find_Orb

Click here for an explanation of pseudo-MPECs

 
 Astrometry: 
     P11TCpU* C2024 04 17iH`TS(^P6+hX[m^rSH:@C4_A]1@WQhht7N(j0fuFr=%-d==@t]cbF51
     P11TCpU  C2024 04 17B+E-K#_9E3*sO^\J*.gcQ'vIGp,02)oW6t4OAstrometryhY=r-YF51
     P11TCpU  C2024 04 17Gk;KO$89@DtGuf-_x6U/'OD0qWMDd`k/V=9Z/RT-p.redacted;!F51
     P11TCpU  C2024 04 176`4click,oC3yAxpyK:=f`'BW@VfLhere0NR\-pRm*_c'Lb#J2vMF51
     P11TCpU  C2024 04 17s3^D@:dlJ8x*O+for[S^@?mXB=Dexplanationxmqrc^LG(m;m9?F51

Station data:
(F51) Pan-STARRS 1, Haleakala  (N20.707234 W156.255910)  US/Hawaii.
   Observers J. Bulger, T. Lowe, A. Schultz, M. Willman. Measurers K.
   Chambers, S. Chastel, T. de Boer, L. Denneau, J. Fairlamb, H. Flewelling,
   M. Huber, C.-C. Lin, E. Magnier, Y. Ramanjooloo, R. Wainscoat, R. Weryk.
   1.8-m Ritchey-Chrétien + CCD.

Orbital elements:  P11TCpU
   Perihelion 2024 Aug 1.18872 +/- 68.1 TT =  4:31:45 (JD 2460523.68872)
Epoch 2024 Apr 18.0 TT = JDT 2460418.5   Earth MOID: 0.1164      AutoNEOCP
M 280.76294751 +/- 48               (J2000 ecliptic)
n   0.75328470 +/- 0.188            Peri.   97.57781 +/- 70
a   1.19627202 +/- 0.199            Node   216.87550 +/- 1.1
e   0.1988609 +/- 0.103             Incl.   29.96052 +/- 10
P   1.31/477.90d           H 22.65  G  0.15   U 11.6  SR
q 0.95838027 +/- 0.167    Q 1.43416378 +/- 0.464
From 5 observations 2024 Apr. 17 (3.1 hr); mean residual 0".20
Residuals in arcseconds: 
240417 F51  .13+  .12+    240417 F51  .07-  .00     240417 F51  .22-  .34-    
240417 F51  .09-  .14-    240417 F51  .25+  .35+    

Ephemerides (geocentric):
Date (UTC) HH   RA             Dec           delta  r     elong  mag " sig PA
---- --------  ------------   ------------  ------ ------ -----  --- --------
2024 04 29 16  15 19 51.067   -02 03 49.92  .16158 1.1620 162.1 19.9 430'   1
2024 04 29 17  15 19 49.873   -01 55 44.42  .16149 1.1619 162.0 19.9 433'   1
2024 04 29 18  15 19 48.674   -01 47 38.43  .16140 1.1618 162.0 19.9 436'   1
2024 04 29 19  15 19 47.470   -01 39 31.94  .16131 1.1616 161.9 19.9 440'   1
2024 04 29 20  15 19 46.261   -01 31 24.97  .16122 1.1615 161.8 19.9 443'   1
2024 04 29 21  15 19 45.049   -01 23 17.52  .16114 1.1614 161.7 19.9 446'   1
2024 04 29 22  15 19 43.831   -01 15 09.59  .16105 1.1612 161.7 19.9 450'   1
2024 04 29 23  15 19 42.609   -01 07 01.19  .16096 1.1611 161.6 19.9 453'   1
2024 04 30 00  15 19 41.383   -00 58 52.33  .16088 1.1610 161.5 19.9 456'   1
2024 04 30 01  15 19 40.151   -00 50 43.02  .16080 1.1608 161.4 19.9 460'   1
2024 04 30 02  15 19 38.916   -00 42 33.25  .16071 1.1607 161.3 19.9 463'   1
2024 04 30 03  15 19 37.676   -00 34 23.04  .16063 1.1606 161.2 19.9 467'   1
2024 04 30 04  15 19 36.431   -00 26 12.38  .16055 1.1604 161.2 19.9 470'   1
2024 04 30 05  15 19 35.182   -00 18 01.30  .16047 1.1603 161.1 19.9 474'   1
2024 04 30 06  15 19 33.928   -00 09 49.79  .16040 1.1602 161.0 19.9 477'   1
2024 04 30 07  15 19 32.670   -00 01 37.85  .16032 1.1600 160.9 19.9 480'   1
2024 04 30 08  15 19 31.407   +00 06 34.49  .16024 1.1599 160.8 19.9 484'   1
2024 04 30 09  15 19 30.140   +00 14 47.25  .16017 1.1598 160.7 19.9 487'   1
2024 04 30 10  15 19 28.869   +00 23 00.40  .16009 1.1596 160.6 19.9 491'   1
2024 04 30 11  15 19 27.593   +00 31 13.95  .16002 1.1595 160.5 19.9 494'   1
2024 04 30 12  15 19 26.312   +00 39 27.90  .15995 1.1594 160.4 19.9 498'   1
2024 04 30 13  15 19 25.027   +00 47 42.22  .15988 1.1592 160.3 19.9 501'   1
2024 04 30 14  15 19 23.738   +00 55 56.92  .15981 1.1591 160.3 19.9 505'   1
2024 04 30 15  15 19 22.444   +01 04 11.99  .15974 1.1590 160.2 19.9 508'   1
2024 04 30 16  15 19 21.146   +01 12 27.42  .15967 1.1588 160.1 19.9 512'   1
2024 04 30 17  15 19 19.843   +01 20 43.22  .15960 1.1587 160.0 19.9 515'   1
2024 04 30 18  15 19 18.536   +01 28 59.36  .15954 1.1586 159.9 19.9 519'   1
2024 04 30 19  15 19 17.225   +01 37 15.84  .15947 1.1584 159.8 19.9 523'   1
2024 04 30 20  15 19 15.909   +01 45 32.67  .15941 1.1583 159.7 19.9 526'   1
2024 04 30 21  15 19 14.589   +01 53 49.82  .15935 1.1582 159.6 19.9 530'   1
2024 04 30 22  15 19 13.264   +02 02 07.30  .15929 1.1580 159.5 19.9 533'   1
2024 04 30 23  15 19 11.935   +02 10 25.10  .15923 1.1579 159.4 19.9 537'   1
2024 05 01 00  15 19 10.602   +02 18 43.21  .15917 1.1578 159.3 19.9 540'   1
2024 05 01 01  15 19 09.264   +02 27 01.62  .15911 1.1576 159.2 19.9 544'   1
2024 05 01 02  15 19 07.922   +02 35 20.33  .15905 1.1575 159.1 19.9 548'   1
2024 05 01 03  15 19 06.576   +02 43 39.33  .15899 1.1574 159.0 19.9 551'   1
2024 05 01 04  15 19 05.225   +02 51 58.61  .15894 1.1572 158.9 19.9 555'   1
2024 05 01 05  15 19 03.871   +03 00 18.18  .15888 1.1571 158.7 19.9 558'   1
2024 05 01 06  15 19 02.511   +03 08 38.01  .15883 1.1570 158.6 19.9 562'   1
2024 05 01 07  15 19 01.148   +03 16 58.11  .15878 1.1568 158.5 19.9 566'   1
2024 05 01 08  15 18 59.780   +03 25 18.46  .15873 1.1567 158.4 19.9 569'   1
2024 05 01 09  15 18 58.408   +03 33 39.07  .15868 1.1566 158.3 19.9 573'   1
2024 05 01 10  15 18 57.031   +03 41 59.92  .15863 1.1564 158.2 19.9 577'   1
2024 05 01 11  15 18 55.651   +03 50 21.01  .15858 1.1563 158.1 19.9 580'   1
2024 05 01 12  15 18 54.266   +03 58 42.32  .15853 1.1562 158.0 19.9 584'   1
2024 05 01 13  15 18 52.877   +04 07 03.86  .15849 1.1560 157.9 19.9 588'   1
2024 05 01 14  15 18 51.483   +04 15 25.61  .15844 1.1559 157.8 19.9 591'   1
2024 05 01 15  15 18 50.085   +04 23 47.58  .15840 1.1558 157.7 19.9 595'   1